SCP
-0 0 -0 -0 -0 -0 -0 -0 0 -0 -0 -0 0 0 0 0 0 0 0 0 0 0 0 0 -0 -0 -0 -0 -0 -0 -0 -0 -0 -0 -0 -0 -0 0 -0 -0 -0 -0 -0
-0 0 0 0 0 0 0 -0 0 0 0 0 0 0 0 0 0 0 0 -0 0 0 -0 -0 -0 -0 -0 -0 -0 -0 0 0 0 -0 -0 -0 -0 -0 -0 -0 -0 -0 -0
0 0 -0 0 0 0 0 0 -0 0 0 0 0 0 0 0 0 -0 -0 -0 0 0 -0 -0 -0 -0 -0 -0 0 0 -0 0 0 -0 0 -0 -0 -0 -0 -0 -0 -0 0
0 0 0 0 0 0 0 0 -0 0 0 0 0 0 0 0 -0 0 -0 -0 -0 -0 -0 0 -0 -0 -0 -0 0 -0 0 0 0 0 0 0 -0 -0 -0 -0 0 0 0
0 -0 -0 -0 0 0 0 -0 -0 -0 0 0 0 0 -0 -0 0 -0 -0 -0 -0 -0 0 0 -0 -0 -0 -0 0 0 0 0 -0 -0 -0 0 0 -0 -0 -0 0 0 0
0 -0 -0 0 0 0 0 0 0 -0 -0 -0 0 0 0 -0 0 -0 0 -0 -0 0 0 0 -0 -0 -0 -0 -0 -0 -0 -0 -0 -0 -0 -0 -0 -0 -0 -0 0 0 0
-0 -0 -0 0 0 0 0 0 0 0 0 0 0 0 0 -0 -0 0 -0 0 0 -0 0 0 0 -0 0 -0 -0 0 -0 -0 -0 -0 -0 -0 -0 -0 -0 -0 0 0 0
0 -0 -0 -0 0 0 0 0 0 0 -0 0 0 0 0 0 0 -0 -0 0 0 -0 -0 -0 -0 -0 -0 -0 -0 -0 -0 -0 -0 -0 -0 -0 -0 -0 -0 -0 -0 0 0
-0 -0 -0 0 0 0 0 0 0 0 -0 0 0 0 0 -0 -0 -0 -0 -0 -0 -0 0 0 0 -0 -0 -0 -0 0 -0 0 -0 -0 -0 -0 -0 -0 -0 -0 -0 0 0
0 -0 -0 -0 0 0 0 0 0 0 0 0 0 0 -0 -0 -0 -0 -0 0 0 0 0 0 -0 -0 -0 -0 -0 0 -0 0 -0 -0 0 -0 -0 -0 -0 -0 -0 -0 -0
-0 -0 -0 -0 0 0 0 0 0 0 -0 -0 -0 -0 -0 -0 -0 -0 0 0 0 0 0 0 0 0 -0 -0 -0 0 -0 -0 -0 -0 0 -0 0 -0 -0 -0 -0 -0 -0
-0 -0 -0 -0 0 0 0 -0 0 0 0 -0 -0 -0 -0 -0 -0 0 0 0 0 0 0 -0 0 0 0 -0 0 0 0 0 0 0 0 -0 -0 -0 -0 -0 -0 -0 -0
-0 -0 0 -0 -0 0 -0 -0 -0 -0 0 -0 -0 -0 -0 0 0 0 0 0 0 0 0 0 0 -0 0 -0 0 0 0 0 0 0 0 -0 0 -0 -0 -0 -0 -0 -0
-0 -0 -0 0 -0 -0 0 0 0 -0 -0 -0 -0 0 -0 0 0 0 0 0 0 0 0 0 0 0 0 0 0 0 0 0 0 0 0 -0 0 0 -0 0 -0 -0 -0
-0 0 -0 0 -0 -0 -0 0 -0 0 0 -0 -0 -0 0 0 -0 0 0 0 -0 0 0 0 1 0 0 0 0 0 0 0 0 0 1 0 0 0 0 0 -0 -0 -0
-0 -0 -0 -0 0 -0 -0 0 -0 -0 -0 -0 0 0 0 0 0 -0 0 0 0 0 1 0 0 0 0 0 0 0 0 0 -0 0 0 0 0 0 0 0 0 0 -0
-0 -0 -0 -0 -0 -0 0 0 -0 -0 -0 -0 0 -0 -0 0 0 0 -0 -0 -0 0 1 0 -0 0 0 0 0 0 0 -0 -0 0 0 0 1 0 0 0 0 -0 0
-0 -0 -0 -0 -0 -0 0 0 -0 0 -0 0 0 0 0 0 0 0 0 -0 0 0 1 1 1 0 0 0 0 0 0 0 -0 0 0 0 0 1 0 0 0 0 -0
-0 -0 -0 -0 -0 -0 -0 0 0 -0 -0 -0 -0 -0 0 0 0 1 0 0 -0 0 0 1 0 0 0 0 1 0 0 0 0 0 0 0 0 0 1 0 0 0 -0
-1 -0 -0 -0 0 0 0 0 -0 -0 -0 0 0 0 -0 0 1 1 1 1 0 0 0 -0 0 1 0 0 0 0 1 0 0 0 0 0 0 0 0 1 1 1 0
-0 -0 -0 -0 0 0 0 0 0 0 0 0 0 -0 0 0 1 1 1 0 0 0 0 0 -0 -0 -0 -0 -0 -0 -0 -0 0 0 0 0 0 0 0 1 1 1 1
-0 -0 0 0 0 0 0 -0 0 0 0 1 1 1 1 1 1 2 1 1 1 0 0 0 0 -0 0 0 0 -0 0 -0 0 0 0 0 0 0 0 1 1 1 1
-0 0 0 0 0 0 0 -0 0 0 0 0 1 2 2 1 1 2 2 2 1 1 1 1 0 0 0 0 0 0 1 0 0 0 0 0 0 1 1 1 1 0 1
-0 -0 0 0 -0 0 0 -0 0 0 1 1 1 3 3 2 2 3 2 2 2 1 1 1 1 1 1 0 1 1 0 1 0 -0 -0 0 1 2 3 2 1 1 1
-0 -0 0 0 0 -0 1 -0 -0 1 0 1 2 3 4 3 3 3 3 3 4 3 2 1 1 1 1 1 1 1 0 0 0 0 -0 -0 -0 1 2 2 1 1 1
0 0 0 1 1 1 1 1 0 0 1 2 2 1 2 1 1 1 2 2 2 2 2 2 1 1 1 1 1 1 1 1 0 0 0 0 0 -0 1 1 1 1 0
Wind_Speed_500mb
33 40 36 37 38 39 41 43 44 45 47 49 49 45 41 38 36 32 28 25 25 25 25 27 29 27 22 21 23 27 27 27 26 26 30 32 34 33 33 31 20 22 23
38 42 41 39 39 40 40 41 40 40 43 42 40 37 33 32 31 33 31 28 27 26 27 26 25 20 20 26 29 32 35 37 36 31 27 29 28 27 29 29 17 19 21
41 41 39 42 38 46 39 35 37 40 39 38 34 27 26 27 30 30 29 28 25 21 20 21 21 22 23 26 32 37 42 39 36 39 38 25 20 24 19 14 14 22 22
41 40 40 42 39 44 39 35 36 37 36 35 27 21 21 27 27 28 27 26 21 20 22 27 29 30 31 29 30 44 39 31 26 20 11 20 13 21 18 17 16 21 18
33 31 36 40 40 40 38 35 32 34 33 32 26 24 25 26 26 25 24 22 18 20 25 31 24 25 24 23 29 38 37 34 34 25 28 24 3 16 18 19 18 17 19
37 29 36 37 39 40 40 37 32 35 33 27 25 26 28 26 24 25 24 23 21 24 26 29 24 25 25 25 26 31 34 34 32 23 13 8 2 8 14 14 13 14 15
31 28 37 37 36 39 40 34 34 30 28 26 27 27 26 21 20 18 22 21 22 23 23 24 24 22 21 22 21 24 27 28 28 12 3 4 3 5 13 10 11 14 12
39 34 37 37 37 39 38 33 34 28 26 28 30 25 22 20 19 19 19 19 21 20 19 18 14 15 14 15 17 18 22 26 22 6 5 3 9 2 8 10 10 11 14
33 32 36 38 37 38 35 33 33 29 26 28 24 20 18 20 20 18 17 16 15 14 13 12 8 7 9 10 12 18 20 24 19 10 11 7 14 4 3 6 8 8 9
32 30 28 34 37 36 37 32 29 28 24 22 20 18 16 17 12 19 13 14 11 11 7 4 4 3 4 6 11 17 17 6 18 24 17 6 14 8 1 4 6 6 7
37 21 29 25 28 31 32 31 28 28 26 19 15 15 18 7 4 8 16 12 12 9 9 7 2 3 4 6 9 7 6 17 21 1 22 10 14 13 5 3 6 7 6
30 27 20 26 31 30 21 25 23 25 27 20 10 8 10 4 5 7 14 18 14 11 2 11 12 2 5 5 9 6 8 4 6 23 18 9 14 16 10 6 6 7 9
29 30 28 23 30 33 23 16 11 12 9 12 11 13 4 8 11 9 18 21 13 19 9 8 8 7 6 7 9 8 15 14 9 13 5 9 12 17 12 9 6 7 9
36 33 28 32 25 30 15 11 10 20 19 11 17 17 20 13 14 15 14 17 23 20 20 12 13 10 30 26 30 29 31 19 8 22 17 22 22 12 15 11 9 8 9
38 32 31 19 36 26 22 14 21 22 13 11 18 23 19 16 13 19 20 23 26 27 12 16 23 25 27 26 21 22 26 33 26 17 26 27 28 14 15 19 15 13 14
32 34 23 18 42 29 33 23 29 29 12 19 15 23 27 21 20 23 24 29 23 20 19 21 16 25 30 18 25 20 20 29 35 27 21 26 25 19 17 21 24 19 15
32 32 28 26 21 24 36 32 28 18 18 14 13 20 32 37 25 23 30 29 28 24 29 33 34 40 37 28 29 23 28 28 28 36 36 38 37 30 26 28 25 23 19
32 32 27 23 24 20 22 21 18 14 18 16 13 21 28 28 34 32 32 27 30 35 35 33 34 39 40 31 29 29 25 30 30 33 35 43 44 38 34 32 34 28 26
35 36 34 30 26 21 24 29 19 18 23 26 25 21 25 35 34 35 37 31 30 37 34 42 42 47 44 43 32 36 46 41 36 41 43 41 41 46 47 48 37 38 33
35 36 35 32 31 29 22 15 20 21 20 20 22 24 29 34 32 37 40 36 37 41 38 43 47 49 54 52 29 37 38 44 48 42 46 49 52 51 51 49 49 48 43
37 34 34 33 28 27 25 15 15 9 17 18 28 29 18 32 34 36 43 46 45 44 50 40 42 52 60 58 51 58 59 57 58 61 48 51 53 52 54 58 52 53 55
40 37 34 31 28 24 21 21 20 11 13 20 23 21 28 31 37 43 43 43 43 45 49 52 55 54 58 54 50 52 58 67 59 66 65 59 64 59 56 60 61 62 63
43 41 35 30 30 27 29 15 19 18 20 19 13 20 20 26 24 40 44 42 41 42 46 46 49 47 56 56 57 47 23 22 40 45 64 65 67 64 59 55 60 62 64
47 39 39 34 31 29 24 29 25 20 17 13 20 12 27 31 37 41 41 46 45 43 41 43 44 51 49 53 55 60 63 64 58 68 67 46 74 70 64 61 59 61 67
47 45 41 38 33 30 26 26 23 20 12 20 13 21 24 25 23 32 40 37 37 45 45 44 47 51 51 56 55 57 60 63 78 80 72 79 78 52 71 70 55 62 66
51 48 45 43 39 35 34 26 32 30 31 30 26 29 31 37 47 32 43 49 55 57 55 53 55 60 60 56 59 62 61 59 64 71 75 84 92 78 54 65 62 55 47
Wind_Direction_500mb
121 118 117 120 121 120 119 118 115 112 116 115 112 104 95 92 93 93 95 105 104 100 95 105 106 105 97 99 96 97 104 104 99 106 106 106 104 104 100 83 66 92 90
128 130 130 127 125 123 120 122 121 118 121 121 116 100 89 87 90 89 90 93 99 97 93 102 104 101 100 98 92 91 88 92 91 88 93 106 107 119 114 110 143 95 101
133 133 133 126 129 130 127 123 124 126 125 127 115 97 86 87 91 89 88 91 98 96 95 95 96 93 94 103 101 96 100 95 92 95 73 58 98 103 109 105 103 90 97
121 131 134 128 128 133 132 129 128 128 127 126 118 97 89 91 87 86 86 86 78 88 96 96 92 95 94 104 100 107 102 91 79 67 99 99 52 102 96 89 108 111 100
121 130 138 134 133 135 136 128 128 131 129 125 113 98 93 89 84 85 84 84 81 84 98 99 99 99 97 99 101 112 100 88 76 76 85 120 351 106 103 95 94 106 104
130 145 139 137 139 141 143 132 128 127 127 123 113 107 99 92 85 83 92 84 79 90 101 111 107 98 96 101 110 117 105 96 92 81 146 168 326 94 112 108 86 92 103
139 146 140 139 140 147 150 140 136 129 127 124 119 110 101 96 84 76 84 80 81 90 102 110 104 97 91 95 102 116 109 93 92 120 35 125 351 135 110 120 112 104 107
132 140 144 142 144 151 152 147 144 139 131 127 126 122 108 93 80 85 83 83 87 91 99 112 104 96 89 96 97 96 122 110 96 92 185 341 24 101 134 129 132 129 122
145 142 143 146 150 154 159 157 156 146 140 138 132 123 106 69 56 58 73 81 85 92 109 121 116 106 91 82 100 96 126 127 124 137 218 290 351 0 123 143 153 145 139
130 138 145 148 154 155 165 170 169 167 156 146 138 121 100 74 61 29 49 42 62 74 74 101 147 162 132 90 108 117 122 126 153 146 215 266 354 337 274 156 158 165 168
141 150 148 145 153 158 172 174 180 184 184 168 153 127 91 41 32 25 13 12 22 27 54 46 12 254 232 130 83 113 111 81 114 342 207 269 342 329 310 232 194 186 187
143 147 149 153 163 161 167 173 179 193 200 203 205 157 84 275 228 293 339 355 15 5 313 19 17 72 72 148 318 332 199 193 359 172 248 299 316 320 311 277 238 219 212
162 147 147 145 126 144 166 165 159 169 191 203 210 233 156 254 267 297 299 317 309 315 308 352 30 66 42 243 229 264 277 186 152 231 233 243 295 308 303 290 267 249 236
154 157 150 143 147 161 131 161 113 184 187 241 260 243 226 227 262 267 243 294 281 281 246 320 318 270 239 248 214 221 224 211 274 278 226 267 271 287 286 280 267 256 251
152 151 179 176 158 156 169 165 185 202 196 246 236 276 294 257 246 263 279 276 243 295 329 282 257 256 273 276 240 232 231 211 222 220 260 278 263 271 279 266 266 273 251
159 157 180 180 172 172 181 174 196 187 216 215 239 259 273 290 240 242 271 289 293 290 278 282 294 267 272 283 279 248 237 229 225 218 246 270 264 255 273 263 266 264 253
170 170 183 180 195 187 192 182 192 181 230 229 242 262 280 292 294 260 255 254 266 283 281 288 273 277 273 267 266 270 249 240 242 228 227 248 265 249 261 258 258 263 259
175 176 185 182 204 210 192 207 204 200 215 247 258 262 274 279 289 285 266 268 283 290 284 281 278 281 286 280 279 280 290 250 239 248 250 245 244 259 254 255 251 255 260
185 184 185 188 207 216 218 212 216 210 234 236 232 246 265 278 285 285 289 275 273 281 281 288 287 288 282 280 277 284 279 277 267 239 250 253 252 239 249 250 248 247 251
194 194 187 195 192 210 218 215 212 232 247 255 250 243 239 256 269 277 280 282 276 269 274 272 282 288 280 287 283 271 283 281 275 279 242 240 250 252 248 248 246 248 250
191 198 198 200 215 209 209 216 226 227 247 278 271 258 254 262 299 284 280 275 271 275 270 283 267 269 266 267 277 275 270 265 272 276 265 248 251 248 246 249 249 245 252
195 204 208 205 220 220 217 208 229 235 267 271 275 296 307 303 294 296 313 301 289 281 281 273 283 273 268 269 269 275 274 277 259 258 267 249 245 247 245 246 250 244 247
199 204 213 207 215 227 212 200 231 249 259 265 279 277 272 318 313 311 310 313 302 295 290 285 282 280 278 276 268 253 266 268 290 284 271 259 245 245 244 244 250 251 248
198 209 206 219 207 223 210 196 221 234 263 266 315 288 297 327 326 316 306 312 309 304 287 288 285 284 284 279 278 269 259 263 278 291 275 289 253 242 241 246 254 251 252
197 201 210 217 211 202 230 210 227 239 220 261 233 270 273 309 310 318 312 299 292 296 298 292 295 290 285 283 279 278 273 270 259 254 273 275 265 266 254 260 259 249 244
199 196 203 213 209 199 215 219 209 209 228 242 277 294 307 296 309 300 285 283 285 291 291 284 282 284 287 284 281 277 270 262 259 256 256 266 267 263 261 259 250 257 252
Wind_Speed_850mb
33 40 36 37 38 39 41 43 44 45 47 49 49 45 41 38 36 32 28 25 25 25 25 27 29 27 22 21 23 27 27 27 26 26 30 32 34 33 33 31 20 22 23
38 42 41 39 39 40 40 41 40 40 43 42 40 37 33 32 31 33 31 28 27 26 27 26 25 20 20 26 29 32 35 37 36 31 27 29 28 27 29 29 17 19 21
41 41 39 42 38 46 39 35 37 40 39 38 34 27 26 27 30 30 29 28 25 21 20 21 21 22 23 26 32 37 42 39 36 39 38 25 20 24 19 14 14 22 22
41 40 40 42 39 44 39 35 36 37 36 35 27 21 21 27 27 28 27 26 21 20 22 27 29 30 31 29 30 44 39 31 26 20 11 20 13 21 18 17 16 21 18
33 31 36 40 40 40 38 35 32 34 33 32 26 24 25 26 26 25 24 22 18 20 25 31 24 25 24 23 29 38 37 34 34 25 28 24 3 16 18 19 18 17 19
37 29 36 37 39 40 40 37 32 35 33 27 25 26 28 26 24 25 24 23 21 24 26 29 24 25 25 25 26 31 34 34 32 23 13 8 2 8 14 14 13 14 15
31 28 37 37 36 39 40 34 34 30 28 26 27 27 26 21 20 18 22 21 22 23 23 24 24 22 21 22 21 24 27 28 28 12 3 4 3 5 13 10 11 14 12
39 34 37 37 37 39 38 33 34 28 26 28 30 25 22 20 19 19 19 19 21 20 19 18 14 15 14 15 17 18 22 26 22 6 5 3 9 2 8 10 10 11 14
33 32 36 38 37 38 35 33 33 29 26 28 24 20 18 20 20 18 17 16 15 14 13 12 8 7 9 10 12 18 20 24 19 10 11 7 14 4 3 6 8 8 9
32 30 28 34 37 36 37 32 29 28 24 22 20 18 16 17 12 19 13 14 11 11 7 4 4 3 4 6 11 17 17 6 18 24 17 6 14 8 1 4 6 6 7
37 21 29 25 28 31 32 31 28 28 26 19 15 15 18 7 4 8 16 12 12 9 9 7 2 3 4 6 9 7 6 17 21 1 22 10 14 13 5 3 6 7 6
30 27 20 26 31 30 21 25 23 25 27 20 10 8 10 4 5 7 14 18 14 11 2 11 12 2 5 5 9 6 8 4 6 23 18 9 14 16 10 6 6 7 9
29 30 28 23 30 33 23 16 11 12 9 12 11 13 4 8 11 9 18 21 13 19 9 8 8 7 6 7 9 8 15 14 9 13 5 9 12 17 12 9 6 7 9
36 33 28 32 25 30 15 11 10 20 19 11 17 17 20 13 14 15 14 17 23 20 20 12 13 10 30 26 30 29 31 19 8 22 17 22 22 12 15 11 9 8 9
38 32 31 19 36 26 22 14 21 22 13 11 18 23 19 16 13 19 20 23 26 27 12 16 23 25 27 26 21 22 26 33 26 17 26 27 28 14 15 19 15 13 14
32 34 23 18 42 29 33 23 29 29 12 19 15 23 27 21 20 23 24 29 23 20 19 21 16 25 30 18 25 20 20 29 35 27 21 26 25 19 17 21 24 19 15
32 32 28 26 21 24 36 32 28 18 18 14 13 20 32 37 25 23 30 29 28 24 29 33 34 40 37 28 29 23 28 28 28 36 36 38 37 30 26 28 25 23 19
32 32 27 23 24 20 22 21 18 14 18 16 13 21 28 28 34 32 32 27 30 35 35 33 34 39 40 31 29 29 25 30 30 33 35 43 44 38 34 32 34 28 26
35 36 34 30 26 21 24 29 19 18 23 26 25 21 25 35 34 35 37 31 30 37 34 42 42 47 44 43 32 36 46 41 36 41 43 41 41 46 47 48 37 38 33
35 36 35 32 31 29 22 15 20 21 20 20 22 24 29 34 32 37 40 36 37 41 38 43 47 49 54 52 29 37 38 44 48 42 46 49 52 51 51 49 49 48 43
37 34 34 33 28 27 25 15 15 9 17 18 28 29 18 32 34 36 43 46 45 44 50 40 42 52 60 58 51 58 59 57 58 61 48 51 53 52 54 58 52 53 55
40 37 34 31 28 24 21 21 20 11 13 20 23 21 28 31 37 43 43 43 43 45 49 52 55 54 58 54 50 52 58 67 59 66 65 59 64 59 56 60 61 62 63
43 41 35 30 30 27 29 15 19 18 20 19 13 20 20 26 24 40 44 42 41 42 46 46 49 47 56 56 57 47 23 22 40 45 64 65 67 64 59 55 60 62 64
47 39 39 34 31 29 24 29 25 20 17 13 20 12 27 31 37 41 41 46 45 43 41 43 44 51 49 53 55 60 63 64 58 68 67 46 74 70 64 61 59 61 67
47 45 41 38 33 30 26 26 23 20 12 20 13 21 24 25 23 32 40 37 37 45 45 44 47 51 51 56 55 57 60 63 78 80 72 79 78 52 71 70 55 62 66
51 48 45 43 39 35 34 26 32 30 31 30 26 29 31 37 47 32 43 49 55 57 55 53 55 60 60 56 59 62 61 59 64 71 75 84 92 78 54 65 62 55 47
Wind_Direction_850mb
121 118 117 120 121 120 119 118 115 112 116 115 112 104 95 92 93 93 95 105 104 100 95 105 106 105 97 99 96 97 104 104 99 106 106 106 104 104 100 83 66 92 90
128 130 130 127 125 123 120 122 121 118 121 121 116 100 89 87 90 89 90 93 99 97 93 102 104 101 100 98 92 91 88 92 91 88 93 106 107 119 114 110 143 95 101
133 133 133 126 129 130 127 123 124 126 125 127 115 97 86 87 91 89 88 91 98 96 95 95 96 93 94 103 101 96 100 95 92 95 73 58 98 103 109 105 103 90 97
121 131 134 128 128 133 132 129 128 128 127 126 118 97 89 91 87 86 86 86 78 88 96 96 92 95 94 104 100 107 102 91 79 67 99 99 52 102 96 89 108 111 100
121 130 138 134 133 135 136 128 128 131 129 125 113 98 93 89 84 85 84 84 81 84 98 99 99 99 97 99 101 112 100 88 76 76 85 120 351 106 103 95 94 106 104
130 145 139 137 139 141 143 132 128 127 127 123 113 107 99 92 85 83 92 84 79 90 101 111 107 98 96 101 110 117 105 96 92 81 146 168 326 94 112 108 86 92 103
139 146 140 139 140 147 150 140 136 129 127 124 119 110 101 96 84 76 84 80 81 90 102 110 104 97 91 95 102 116 109 93 92 120 35 125 351 135 110 120 112 104 107
132 140 144 142 144 151 152 147 144 139 131 127 126 122 108 93 80 85 83 83 87 91 99 112 104 96 89 96 97 96 122 110 96 92 185 341 24 101 134 129 132 129 122
145 142 143 146 150 154 159 157 156 146 140 138 132 123 106 69 56 58 73 81 85 92 109 121 116 106 91 82 100 96 126 127 124 137 218 290 351 0 123 143 153 145 139
130 138 145 148 154 155 165 170 169 167 156 146 138 121 100 74 61 29 49 42 62 74 74 101 147 162 132 90 108 117 122 126 153 146 215 266 354 337 274 156 158 165 168
141 150 148 145 153 158 172 174 180 184 184 168 153 127 91 41 32 25 13 12 22 27 54 46 12 254 232 130 83 113 111 81 114 342 207 269 342 329 310 232 194 186 187
143 147 149 153 163 161 167 173 179 193 200 203 205 157 84 275 228 293 339 355 15 5 313 19 17 72 72 148 318 332 199 193 359 172 248 299 316 320 311 277 238 219 212
162 147 147 145 126 144 166 165 159 169 191 203 210 233 156 254 267 297 299 317 309 315 308 352 30 66 42 243 229 264 277 186 152 231 233 243 295 308 303 290 267 249 236
154 157 150 143 147 161 131 161 113 184 187 241 260 243 226 227 262 267 243 294 281 281 246 320 318 270 239 248 214 221 224 211 274 278 226 267 271 287 286 280 267 256 251
152 151 179 176 158 156 169 165 185 202 196 246 236 276 294 257 246 263 279 276 243 295 329 282 257 256 273 276 240 232 231 211 222 220 260 278 263 271 279 266 266 273 251
159 157 180 180 172 172 181 174 196 187 216 215 239 259 273 290 240 242 271 289 293 290 278 282 294 267 272 283 279 248 237 229 225 218 246 270 264 255 273 263 266 264 253
170 170 183 180 195 187 192 182 192 181 230 229 242 262 280 292 294 260 255 254 266 283 281 288 273 277 273 267 266 270 249 240 242 228 227 248 265 249 261 258 258 263 259
175 176 185 182 204 210 192 207 204 200 215 247 258 262 274 279 289 285 266 268 283 290 284 281 278 281 286 280 279 280 290 250 239 248 250 245 244 259 254 255 251 255 260
185 184 185 188 207 216 218 212 216 210 234 236 232 246 265 278 285 285 289 275 273 281 281 288 287 288 282 280 277 284 279 277 267 239 250 253 252 239 249 250 248 247 251
194 194 187 195 192 210 218 215 212 232 247 255 250 243 239 256 269 277 280 282 276 269 274 272 282 288 280 287 283 271 283 281 275 279 242 240 250 252 248 248 246 248 250
191 198 198 200 215 209 209 216 226 227 247 278 271 258 254 262 299 284 280 275 271 275 270 283 267 269 266 267 277 275 270 265 272 276 265 248 251 248 246 249 249 245 252
195 204 208 205 220 220 217 208 229 235 267 271 275 296 307 303 294 296 313 301 289 281 281 273 283 273 268 269 269 275 274 277 259 258 267 249 245 247 245 246 250 244 247
199 204 213 207 215 227 212 200 231 249 259 265 279 277 272 318 313 311 310 313 302 295 290 285 282 280 278 276 268 253 266 268 290 284 271 259 245 245 244 244 250 251 248
198 209 206 219 207 223 210 196 221 234 263 266 315 288 297 327 326 316 306 312 309 304 287 288 285 284 284 279 278 269 259 263 278 291 275 289 253 242 241 246 254 251 252
197 201 210 217 211 202 230 210 227 239 220 261 233 270 273 309 310 318 312 299 292 296 298 292 295 290 285 283 279 278 273 270 259 254 273 275 265 266 254 260 259 249 244
199 196 203 213 209 199 215 219 209 209 228 242 277 294 307 296 309 300 285 283 285 291 291 284 282 284 287 284 281 277 270 262 259 256 256 266 267 263 261 259 250 257 252